| time (UTC) | temp F | wind direction | speed MPH | gust MPH | rain 1hr in | rain 24hr in | rain mn in | humidity % | barometer mb |
| 20260510211523 | 66 | 185 | 2.0 | 4.0 | 0.00 | 0.00 | 0.00 | 71 | 1017.2 |
| 20260510211017 | 66 | 303 | 3.0 | 6.0 | 0.00 | 0.00 | 0.00 | 70 | 1017.1 |
| 20260510210514 | 67 | 251 | 4.0 | 8.0 | 0.00 | 0.00 | 0.00 | 69 | 1017.2 |
| 20260510210014 | 68 | 248 | 4.0 | 8.0 | 0.00 | 0.00 | 0.00 | 69 | 1016.9 |
| 20260510205508 | 67 | 219 | 2.0 | 6.0 | 0.00 | 0.00 | 0.00 | 70 | 1017.0 |
| 20260510205004 | 69 | 207 | 6.0 | 9.0 | 0.00 | 0.00 | 0.00 | 65 | 1017.2 |
| 20260510204501 | 69 | 218 | 3.0 | 8.0 | 0.00 | 0.00 | 0.00 | 67 | 1017.2 |
| 20260510203957 | 67 | 233 | 6.0 | 8.0 | 0.00 | 0.00 | 0.00 | 68 | 1017.2 |
| 20260510203455 | 66 | 225 | 3.0 | 7.0 | 0.00 | 0.00 | 0.00 | 70 | 1017.2 |
| 20260510202955 | 65 | 208 | 3.0 | 6.0 | 0.00 | 0.00 | 0.00 | 74 | 1017.2 |
| 20260510202450 | 64 | 222 | 1.0 | 4.0 | 0.00 | 0.00 | 0.00 | 74 | 1017.2 |
| 20260510201947 | 64 | 9 | 0.0 | 3.0 | 0.00 | 0.00 | 0.00 | 75 | 1017.3 |
| 20260510201445 | 64 | 160 | 3.0 | 8.0 | 0.00 | 0.00 | 0.00 | 78 | 1017.3 |
| 20260510200941 | 67 | 225 | 5.0 | 7.0 | 0.00 | 0.00 | 0.00 | 67 | 1017.5 |
| 20260510200437 | 69 | 122 | 3.0 | 6.0 | 0.00 | 0.00 | 0.00 | 64 | 1017.3 |
| 20260510195935 | 69 | 55 | 2.0 | 2.0 | 0.00 | 0.00 | 0.00 | 62 | 1017.1 |
| 20260510195433 | 70 | 275 | 2.0 | 3.0 | 0.00 | 0.00 | 0.00 | 58 | 1016.9 |
| 20260510194928 | 72 | 295 | 2.0 | 4.0 | 0.00 | 0.00 | 0.00 | 55 | 1017.0 |
| 20260510194424 | 70 | 255 | 5.0 | 7.0 | 0.00 | 0.00 | 0.00 | 54 | 1017.1 |
| 20260510193920 | 69 | 219 | 4.0 | 4.0 | 0.00 | 0.00 | 0.00 | 55 | 1017.1 |
| 20260510193415 | 69 | 188 | 0.0 | 3.0 | 0.00 | 0.00 | 0.00 | 59 | 1016.9 |
| 20260510192912 | 69 | 207 | 5.0 | 8.0 | 0.00 | 0.00 | 0.00 | 55 | 1016.7 |
| 20260510192406 | 70 | 202 | 3.0 | 7.0 | 0.00 | 0.00 | 0.00 | 56 | 1016.3 |
| 20260510191903 | 70 | 216 | 6.0 | 9.0 | 0.00 | 0.00 | 0.00 | 55 | 1016.3 |
| 20260510191359 | 72 | 140 | 9.0 | 11.0 | 0.00 | 0.00 | 0.00 | 53 | 1016.7 |
| 20260510190856 | 71 | 154 | 4.0 | 7.0 | 0.00 | 0.00 | 0.00 | 57 | 1016.7 |
| 20260510190354 | 70 | 173 | 4.0 | 9.0 | 0.00 | 0.00 | 0.00 | 52 | 1016.8 |
| 20260510185850 | 71 | 234 | 5.0 | 8.0 | 0.00 | 0.00 | 0.00 | 51 | 1016.7 |
| 20260510185348 | 71 | 162 | 6.0 | 7.0 | 0.00 | 0.00 | 0.00 | 54 | 1016.5 |
| 20260510184845 | 71 | 182 | 3.0 | 8.0 | 0.00 | 0.00 | 0.00 | 58 | 1017.0 |
| 20260510184342 | 69 | 230 | 2.0 | 7.0 | 0.00 | 0.00 | 0.00 | 67 | 1017.1 |
| 20260510183841 | 68 | 235 | 4.0 | 4.0 | 0.00 | 0.00 | 0.00 | 56 | 1017.2 |
| 20260510183338 | 70 | 195 | 3.0 | 7.0 | 0.00 | 0.00 | 0.00 | 55 | 1017.1 |
| 20260510182833 | 71 | 131 | 2.0 | 9.0 | 0.00 | 0.00 | 0.00 | 47 | 1017.0 |
| 20260510182330 | 71 | 255 | 2.0 | 7.0 | 0.00 | 0.00 | 0.00 | 47 | 1016.5 |
| 20260510181826 | 71 | 162 | 1.0 | 2.0 | 0.00 | 0.00 | 0.00 | 47 | 1016.8 |
| 20260510181323 | 72 | 237 | 9.0 | 11.0 | 0.00 | 0.00 | 0.00 | 47 | 1016.5 |
| 20260510180819 | 72 | 238 | 6.0 | 11.0 | 0.00 | 0.00 | 0.00 | 46 | 1016.8 |
| 20260510180316 | 72 | 168 | 6.0 | 11.0 | 0.00 | 0.00 | 0.00 | 44 | 1016.7 |
| 20260510175813 | 73 | 261 | 6.0 | 11.0 | 0.00 | 0.00 | 0.00 | 43 | 1016.3 |
| 20260510175309 | 73 | 152 | 5.0 | 6.0 | 0.00 | 0.00 | 0.00 | 44 | 1016.5 |
| 20260510174806 | 73 | 84 | 2.0 | 9.0 | 0.00 | 0.00 | 0.00 | 44 | 1016.7 |
| 20260510174303 | 73 | 268 | 4.0 | 9.0 | 0.00 | 0.00 | 0.00 | 44 | 1016.7 |
| 20260510173759 | 73 | 196 | 5.0 | 9.0 | 0.00 | 0.00 | 0.00 | 43 | 1016.4 |
| 20260510173255 | 74 | 221 | 6.0 | 14.0 | 0.00 | 0.00 | 0.00 | 41 | 1016.8 |
| 20260510172750 | 75 | 191 | 11.0 | 21.0 | 0.00 | 0.00 | 0.00 | 39 | 1016.2 |
| 20260510172247 | 75 | 233 | 4.0 | 15.0 | 0.00 | 0.00 | 0.00 | 40 | 1016.0 |
| 20260510171744 | 75 | 195 | 4.0 | 4.0 | 0.00 | 0.00 | 0.00 | 41 | 1016.4 |
| 20260510171241 | 76 | 162 | 4.0 | 4.0 | 0.00 | 0.00 | 0.00 | 41 | 1016.1 |
| 20260510170738 | 75 | 196 | 7.0 | 14.0 | 0.00 | 0.00 | 0.00 | 44 | 1016.4 |
| 20260510170234 | 76 | 282 | 4.0 | 7.0 | 0.00 | 0.00 | 0.00 | 40 | 1016.3 |
| 20260510165730 | 74 | 201 | 6.0 | 13.0 | 0.00 | 0.00 | 0.00 | 41 | 1016.4 |
| 20260510165226 | 74 | 221 | 7.0 | 14.0 | 0.00 | 0.00 | 0.00 | 43 | 1016.8 |
| 20260510164723 | 73 | 163 | 8.0 | 14.0 | 0.00 | 0.00 | 0.00 | 40 | 1016.8 |
| 20260510164221 | 73 | 244 | 6.0 | 13.0 | 0.00 | 0.00 | 0.00 | 42 | 1016.8 |
| 20260510163716 | 74 | 208 | 8.0 | 13.0 | 0.00 | 0.00 | 0.00 | 41 | 1016.8 |
| 20260510163212 | 72 | 36 | 1.0 | 7.0 | 0.00 | 0.00 | 0.00 | 43 | 1017.0 |
| 20260510162711 | 74 | 249 | 4.0 | 11.0 | 0.00 | 0.00 | 0.00 | 42 | 1017.0 |
| 20260510162209 | 74 | 280 | 2.0 | 11.0 | 0.00 | 0.00 | 0.00 | 41 | 1016.8 |
| 20260510161704 | 73 | 242 | 2.0 | 9.0 | 0.00 | 0.00 | 0.00 | 43 | 1017.0 |
| 20260510161201 | 73 | 233 | 9.0 | 11.0 | 0.00 | 0.00 | 0.00 | 41 | 1017.1 |
| 20260510160658 | 73 | 233 | 6.0 | 17.0 | 0.00 | 0.00 | 0.00 | 42 | 1017.1 |
| 20260510160153 | 73 | 194 | 4.0 | 9.0 | 0.00 | 0.00 | 0.00 | 42 | 1017.0 |
| 20260510155649 | 73 | 175 | 11.0 | 13.0 | 0.00 | 0.00 | 0.00 | 42 | 1017.0 |
| 20260510155145 | 72 | 204 | 3.0 | 13.0 | 0.00 | 0.00 | 0.00 | 46 | 1017.3 |
| 20260510154641 | 73 | 204 | 9.0 | 10.0 | 0.00 | 0.00 | 0.00 | 45 | 1017.3 |
| 20260510154137 | 73 | 243 | 7.0 | 11.0 | 0.00 | 0.00 | 0.00 | 46 | 1017.2 |
| 20260510153632 | 72 | 103 | 6.0 | 8.0 | 0.00 | 0.00 | 0.00 | 45 | 1017.5 |
| 20260510153129 | 72 | 246 | 2.0 | 11.0 | 0.00 | 0.00 | 0.00 | 48 | 1017.4 |
| 20260510152626 | 72 | 176 | 3.0 | 6.0 | 0.00 | 0.00 | 0.00 | 45 | 1017.2 |
| 20260510152122 | 72 | 192 | 6.0 | 10.0 | 0.00 | 0.00 | 0.00 | 50 | 1017.4 |
| 20260510151619 | 71 | 145 | 9.0 | 13.0 | 0.00 | 0.00 | 0.00 | 45 | 1017.2 |
| 20260510151117 | 71 | 168 | 1.0 | 4.0 | 0.00 | 0.00 | 0.00 | 50 | 1017.3 |
| 20260510150617 | 70 | 153 | 4.0 | 9.0 | 0.00 | 0.00 | 0.00 | 53 | 1017.4 |
| 20260510150113 | 69 | 213 | 3.0 | 7.0 | 0.00 | 0.00 | 0.00 | 51 | 1017.0 |
| 20260510145609 | 69 | 239 | 3.0 | 7.0 | 0.00 | 0.00 | 0.00 | 53 | 1017.2 |
| 20260510145106 | 70 | 114 | 5.0 | 9.0 | 0.00 | 0.00 | 0.00 | 50 | 1017.1 |
| 20260510144602 | 70 | 243 | 4.0 | 7.0 | 0.00 | 0.00 | 0.00 | 51 | 1017.0 |
| 20260510144058 | 69 | 139 | 4.0 | 6.0 | 0.00 | 0.00 | 0.00 | 52 | 1017.0 |
| 20260510143554 | 69 | 262 | 8.0 | 14.0 | 0.00 | 0.00 | 0.00 | 52 | 1017.3 |
| 20260510143050 | 68 | 252 | 8.0 | 11.0 | 0.00 | 0.00 | 0.00 | 57 | 1017.1 |
| 20260510142547 | 68 | 82 | 3.0 | 3.0 | 0.00 | 0.00 | 0.00 | 58 | 1017.4 |
| 20260510142044 | 68 | 232 | 1.0 | 13.0 | 0.00 | 0.00 | 0.00 | 58 | 1017.3 |
| 20260510141541 | 68 | 196 | 4.0 | 8.0 | 0.00 | 0.00 | 0.00 | 59 | 1017.4 |
| 20260510141039 | 68 | 144 | 4.0 | 13.0 | 0.00 | 0.00 | 0.00 | 57 | 1017.4 |
| 20260510140535 | 68 | 155 | 1.0 | 8.0 | 0.00 | 0.00 | 0.00 | 60 | 1017.2 |
| 20260510140034 | 66 | 79 | 2.0 | 4.0 | 0.00 | 0.00 | 0.00 | 60 | 1017.3 |
| 20260510135530 | 62 | 148 | 10.0 | 15.0 | 0.00 | 0.00 | 0.00 | 67 | 1017.2 |
| 20260510135026 | 61 | 70 | 2.0 | 4.0 | 0.00 | 0.00 | 0.00 | 78 | 1017.4 |
| 20260510134524 | 60 | 32 | 1.0 | 3.0 | 0.00 | 0.00 | 0.00 | 79 | 1017.5 |
| 20260510134021 | 58 | 275 | 0.0 | 2.0 | 0.00 | 0.00 | 0.00 | 80 | 1017.6 |
| 20260510133516 | 58 | 322 | 1.0 | 1.0 | 0.00 | 0.00 | 0.00 | 82 | 1017.6 |
| 20260510133013 | 57 | 248 | 0.0 | 3.0 | 0.00 | 0.00 | 0.00 | 80 | 1017.3 |
| 20260510132510 | 57 | 62 | 0.0 | 0.0 | 0.00 | 0.00 | 0.00 | 83 | 1017.2 |
| 20260510132006 | 56 | 44 | 0.0 | 1.0 | 0.00 | 0.00 | 0.00 | 84 | 1017.3 |
| 20260510131504 | 56 | 192 | 2.0 | 4.0 | 0.00 | 0.00 | 0.00 | 82 | 1017.5 |
| 20260510131001 | 56 | 98 | 0.0 | 2.0 | 0.00 | 0.00 | 0.00 | 84 | 1017.2 |
| 20260510130457 | 56 | 55 | 2.0 | 3.0 | 0.00 | 0.00 | 0.00 | 84 | 1017.3 |
| 20260510125955 | 56 | 56 | 0.0 | 2.0 | 0.00 | 0.00 | 0.00 | 83 | 1017.3 |
| 20260510125451 | 56 | 80 | 1.0 | 1.0 | 0.00 | 0.00 | 0.00 | 83 | 1017.2 |
| 20260510124947 | 55 | 52 | 0.0 | 2.0 | 0.00 | 0.00 | 0.00 | 83 | 1017.3 |
| 20260510124444 | 55 | 95 | 0.0 | 1.0 | 0.00 | 0.00 | 0.00 | 84 | 1017.2 |
| 20260510123941 | 55 | 27 | 0.0 | 1.0 | 0.00 | 0.00 | 0.00 | 84 | 1017.4 |
| 20260510123436 | 54 | 68 | 3.0 | 3.0 | 0.00 | 0.00 | 0.00 | 84 | 1017.2 |
| 20260510122932 | 54 | 30 | 0.0 | 1.0 | 0.00 | 0.00 | 0.00 | 85 | 1017.3 |
| 20260510122432 | 53 | 22 | 0.0 | 0.0 | 0.00 | 0.00 | 0.00 | 85 | 1017.0 |
| 20260510121929 | 53 | 43 | 2.0 | 2.0 | 0.00 | 0.00 | 0.00 | 84 | 1017.1 |
| 20260510121427 | 53 | 33 | 0.0 | 0.0 | 0.00 | 0.00 | 0.00 | 85 | 1017.1 |
| 20260510120924 | 52 | 57 | 1.0 | 2.0 | 0.00 | 0.00 | 0.00 | 85 | 1016.8 |
| 20260510120421 | 52 | 45 | 1.0 | 1.0 | 0.00 | 0.00 | 0.00 | 86 | 1017.0 |
| 20260510115917 | 52 | 64 | 0.0 | 2.0 | 0.00 | 0.00 | 0.00 | 86 | 1016.8 |
| 20260510115414 | 51 | 66 | 0.0 | 0.0 | 0.00 | 0.00 | 0.00 | 85 | 1017.1 |
| 20260510114910 | 51 | 265 | 0.0 | 1.0 | 0.00 | 0.00 | 0.00 | 86 | 1017.2 |
| 20260510114407 | 51 | 83 | 0.0 | 2.0 | 0.00 | 0.00 | 0.00 | 87 | 1016.9 |
| 20260510113902 | 50 | 163 | 2.0 | 6.0 | 0.00 | 0.00 | 0.00 | 87 | 1017.0 |
| 20260510113358 | 50 | 21 | 0.0 | 2.0 | 0.00 | 0.00 | 0.00 | 89 | 1017.1 |
| 20260510112856 | 49 | 306 | 0.0 | 1.0 | 0.00 | 0.00 | 0.00 | 89 | 1017.0 |
| 20260510112352 | 49 | 130 | 0.0 | 3.0 | 0.00 | 0.00 | 0.00 | 88 | 1017.1 |
| 20260510111848 | 49 | 243 | 1.0 | 3.0 | 0.00 | 0.00 | 0.00 | 89 | 1017.1 |
| 20260510111346 | 48 | 173 | 3.0 | 6.0 | 0.00 | 0.00 | 0.00 | 88 | 1016.9 |
| 20260510110846 | 48 | 216 | 2.0 | 3.0 | 0.00 | 0.00 | 0.00 | 90 | 1016.9 |
| 20260510110343 | 47 | 260 | 3.0 | 3.0 | 0.00 | 0.00 | 0.00 | 91 | 1016.7 |
| 20260510105839 | 47 | 279 | 0.0 | 0.0 | 0.00 | 0.00 | 0.00 | 91 | 1016.5 |
| 20260510105339 | 47 | 102 | 1.0 | 2.0 | 0.00 | 0.00 | 0.00 | 92 | 1016.5 |
| 20260510104835 | 47 | 87 | 1.0 | 1.0 | 0.00 | 0.00 | 0.00 | 92 | 1016.4 |
| 20260510104332 | 47 | 96 | 2.0 | 2.0 | 0.00 | 0.00 | 0.00 | 92 | 1016.2 |
| 20260510103828 | 47 | 330 | 1.0 | 1.0 | 0.00 | 0.00 | 0.00 | 91 | 1016.3 |
| 20260510103325 | 47 | 114 | 0.0 | 2.0 | 0.00 | 0.00 | 0.00 | 91 | 1016.2 |
| 20260510102821 | 46 | 358 | 0.0 | 3.0 | 0.00 | 0.00 | 0.00 | 92 | 1016.2 |
| 20260510102317 | 46 | 314 | 3.0 | 3.0 | 0.00 | 0.00 | 0.00 | 92 | 1015.9 |
| 20260510101814 | 46 | 233 | 0.0 | 1.0 | 0.00 | 0.00 | 0.00 | 91 | 1015.9 |
| 20260510101312 | 46 | 269 | 1.0 | 2.0 | 0.00 | 0.00 | 0.00 | 92 | 1015.8 |
| 20260510100808 | 47 | 165 | 0.0 | 0.0 | 0.00 | 0.00 | 0.00 | 91 | 1015.7 |
| 20260510100306 | 46 | 106 | 1.0 | 3.0 | 0.00 | 0.00 | 0.00 | 92 | 1015.9 |
| 20260510095801 | 47 | 45 | 1.0 | 2.0 | 0.00 | 0.00 | 0.00 | 92 | 1015.8 |
| 20260510095257 | 46 | 50 | 0.0 | 2.0 | 0.00 | 0.00 | 0.00 | 92 | 1015.7 |
| 20260510094756 | 46 | 46 | 0.0 | 1.0 | 0.00 | 0.00 | 0.00 | 93 | 1015.6 |
| 20260510094251 | 46 | 85 | 0.0 | 2.0 | 0.00 | 0.00 | 0.00 | 94 | 1015.6 |
| 20260510093747 | 46 | 58 | 0.0 | 1.0 | 0.00 | 0.00 | 0.00 | 93 | 1015.6 |
| 20260510093245 | 46 | 225 | 2.0 | 2.0 | 0.00 | 0.00 | 0.00 | 93 | 1015.6 |
| 20260510092741 | 46 | 201 | 0.0 | 1.0 | 0.00 | 0.00 | 0.00 | 93 | 1015.5 |
| 20260510092237 | 46 | 46 | 2.0 | 2.0 | 0.00 | 0.00 | 0.00 | 92 | 1015.3 |
| 20260510091733 | 47 | 62 | 2.0 | 3.0 | 0.00 | 0.00 | 0.00 | 92 | 1015.3 |
| 20260510091230 | 47 | 49 | 0.0 | 2.0 | 0.00 | 0.00 | 0.00 | 92 | 1015.3 |
| 20260510090726 | 47 | 179 | 0.0 | 4.0 | 0.00 | 0.00 | 0.00 | 92 | 1015.3 |
| 20260510090224 | 46 | 109 | 3.0 | 3.0 | 0.00 | 0.00 | 0.00 | 92 | 1015.2 |
| 20260510085718 | 46 | 269 | 0.0 | 2.0 | 0.00 | 0.00 | 0.00 | 92 | 1015.2 |
| 20260510085213 | 46 | 98 | 2.0 | 3.0 | 0.00 | 0.00 | 0.00 | 92 | 1015.3 |
| 20260510084709 | 46 | 164 | 0.0 | 4.0 | 0.00 | 0.00 | 0.00 | 93 | 1015.3 |
| 20260510084207 | 46 | 199 | 0.0 | 4.0 | 0.00 | 0.00 | 0.00 | 93 | 1015.5 |
| 20260510083703 | 46 | 252 | 1.0 | 1.0 | 0.00 | 0.00 | 0.00 | 93 | 1015.4 |
| 20260510083201 | 46 | 109 | 3.0 | 3.0 | 0.00 | 0.00 | 0.00 | 92 | 1015.0 |
| 20260510082656 | 46 | 59 | 1.0 | 1.0 | 0.00 | 0.00 | 0.00 | 93 | 1015.2 |
| 20260510082152 | 46 | 40 | 3.0 | 3.0 | 0.00 | 0.00 | 0.00 | 93 | 1015.2 |
| 20260510081647 | 46 | 15 | 1.0 | 1.0 | 0.00 | 0.00 | 0.00 | 93 | 1015.1 |
| 20260510081143 | 46 | 81 | 2.0 | 2.0 | 0.00 | 0.00 | 0.00 | 93 | 1015.2 |
| 20260510080642 | 46 | 215 | 0.0 | 2.0 | 0.00 | 0.00 | 0.00 | 93 | 1015.1 |
| 20260510080140 | 46 | 98 | 1.0 | 2.0 | 0.00 | 0.00 | 0.00 | 92 | 1015.0 |
| 20260510075636 | 46 | 68 | 1.0 | 2.0 | 0.00 | 0.00 | 0.00 | 91 | 1015.2 |
| 20260510075134 | 46 | 128 | 0.0 | 1.0 | 0.00 | 0.00 | 0.00 | 91 | 1015.1 |
| 20260510074630 | 47 | 119 | 0.0 | 2.0 | 0.00 | 0.00 | 0.00 | 91 | 1014.8 |
| 20260510074126 | 47 | 355 | 0.0 | 1.0 | 0.00 | 0.00 | 0.00 | 91 | 1014.7 |
| 20260510073622 | 47 | 151 | 0.0 | 2.0 | 0.00 | 0.00 | 0.00 | 92 | 1015.0 |
| 20260510073119 | 46 | 187 | 1.0 | 4.0 | 0.00 | 0.00 | 0.00 | 92 | 1014.8 |
| 20260510072616 | 45 | 16 | 2.0 | 4.0 | 0.00 | 0.00 | 0.00 | 93 | 1015.0 |
| 20260510072112 | 45 | 350 | 0.0 | 2.0 | 0.00 | 0.00 | 0.00 | 94 | 1015.0 |
| 20260510071608 | 45 | 234 | 0.0 | 2.0 | 0.00 | 0.00 | 0.00 | 93 | 1015.0 |
| 20260510071107 | 46 | 42 | 0.0 | 1.0 | 0.00 | 0.00 | 0.00 | 92 | 1015.0 |
| 20260510070603 | 46 | 113 | 0.0 | 1.0 | 0.00 | 0.00 | 0.00 | 91 | 1014.8 |
| 20260510070100 | 46 | 54 | 2.0 | 3.0 | 0.00 | 0.00 | 0.00 | 92 | 1014.8 |
| 20260510065556 | 47 | 218 | 0.0 | 0.0 | 0.00 | 0.00 | 0.00 | 90 | 1014.7 |
| 20260510065052 | 47 | 49 | 2.0 | 3.0 | 0.00 | 0.00 | 0.00 | 90 | 1014.8 |
| 20260510064549 | 46 | 56 | 0.0 | 1.0 | 0.00 | 0.00 | 0.00 | 92 | 1014.8 |
| 20260510064045 | 46 | 55 | 2.0 | 2.0 | 0.00 | 0.00 | 0.00 | 91 | 1014.8 |
| 20260510063543 | 46 | 312 | 1.0 | 3.0 | 0.00 | 0.00 | 0.00 | 91 | 1014.7 |
| 20260510063040 | 46 | 38 | 1.0 | 1.0 | 0.00 | 0.00 | 0.00 | 90 | 1014.8 |
| 20260510062535 | 46 | 53 | 2.0 | 3.0 | 0.00 | 0.00 | 0.00 | 91 | 1015.0 |
| 20260510062031 | 46 | 55 | 2.0 | 3.0 | 0.00 | 0.00 | 0.00 | 91 | 1015.0 |
| 20260510061528 | 47 | 281 | 1.0 | 2.0 | 0.00 | 0.00 | 0.00 | 90 | 1015.1 |
| 20260510061024 | 46 | 72 | 0.0 | 2.0 | 0.00 | 0.00 | 0.00 | 90 | 1015.0 |
| 20260510060521 | 47 | 44 | 0.0 | 0.0 | 0.00 | 0.00 | 0.00 | 89 | 1014.8 |
| 20260510060017 | 47 | 130 | 0.0 | 2.0 | 0.00 | 0.00 | 0.00 | 89 | 1014.7 |
| 20260510055513 | 46 | 76 | 0.0 | 1.0 | 0.00 | 0.00 | 0.00 | 91 | 1014.8 |
| 20260510055011 | 46 | 79 | 3.0 | 3.0 | 0.00 | 0.00 | 0.00 | 91 | 1014.8 |
| 20260510054507 | 46 | 97 | 3.0 | 3.0 | 0.00 | 0.00 | 0.00 | 91 | 1015.1 |
| 20260510054002 | 46 | 216 | 0.0 | 1.0 | 0.00 | 0.00 | 0.00 | 90 | 1015.1 |
| 20260510053457 | 47 | 132 | 0.0 | 2.0 | 0.00 | 0.00 | 0.00 | 90 | 1015.3 |
| 20260510052953 | 46 | 250 | 1.0 | 3.0 | 0.00 | 0.00 | 0.00 | 90 | 1015.3 |
| 20260510052450 | 46 | 44 | 0.0 | 2.0 | 0.00 | 0.00 | 0.00 | 91 | 1015.2 |
| 20260510051946 | 45 | 49 | 0.0 | 1.0 | 0.00 | 0.00 | 0.00 | 92 | 1015.5 |
| 20260510051442 | 46 | 96 | 0.0 | 0.0 | 0.00 | 0.00 | 0.00 | 91 | 1015.4 |
| 20260510050938 | 46 | 96 | 0.0 | 1.0 | 0.00 | 0.00 | 0.00 | 91 | 1015.5 |
| 20260510050435 | 45 | 62 | 0.0 | 0.0 | 0.00 | 0.00 | 0.00 | 91 | 1015.6 |
| 20260510045933 | 46 | 62 | 0.0 | 0.0 | 0.00 | 0.00 | 0.00 | 91 | 1015.6 |
| 20260510045430 | 46 | 62 | 0.0 | 0.0 | 0.00 | 0.00 | 0.00 | 91 | 1015.5 |
| 20260510044926 | 46 | 60 | 0.0 | 0.0 | 0.00 | 0.00 | 0.00 | 91 | 1015.6 |
| 20260510044423 | 46 | 70 | 0.0 | 0.0 | 0.00 | 0.00 | 0.00 | 91 | 1015.4 |
| 20260510043920 | 46 | 96 | 0.0 | 0.0 | 0.00 | 0.00 | 0.00 | 90 | 1015.4 |
| 20260510043416 | 46 | 95 | 0.0 | 0.0 | 0.00 | 0.00 | 0.00 | 90 | 1015.3 |
| 20260510042914 | 46 | 119 | 0.0 | 0.0 | 0.00 | 0.00 | 0.00 | 89 | 1015.2 |
| 20260510042410 | 46 | 115 | 0.0 | 0.0 | 0.00 | 0.00 | 0.00 | 89 | 1015.2 |
| 20260510041906 | 46 | 84 | 0.0 | 0.0 | 0.00 | 0.00 | 0.00 | 90 | 1015.0 |
| 20260510041403 | 47 | 83 | 0.0 | 0.0 | 0.00 | 0.00 | 0.00 | 89 | 1014.8 |
| 20260510040901 | 47 | 82 | 0.0 | 1.0 | 0.00 | 0.00 | 0.00 | 88 | 1014.8 |
| 20260510040358 | 46 | 125 | 0.0 | 0.0 | 0.00 | 0.00 | 0.00 | 90 | 1015.0 |
| 20260510035853 | 46 | 103 | 0.0 | 0.0 | 0.00 | 0.00 | 0.00 | 90 | 1014.7 |
| 20260510035349 | 46 | 103 | 1.0 | 1.0 | 0.00 | 0.00 | 0.00 | 90 | 1015.3 |
| 20260510034844 | 46 | 104 | 0.0 | 0.0 | 0.00 | 0.00 | 0.00 | 89 | 1015.2 |
| 20260510034343 | 46 | 104 | 0.0 | 0.0 | 0.00 | 0.00 | 0.00 | 88 | 1015.1 |
| 20260510033839 | 47 | 114 | 0.0 | 0.0 | 0.00 | 0.00 | 0.00 | 88 | 1015.1 |
| 20260510033336 | 47 | 120 | 0.0 | 0.0 | 0.00 | 0.00 | 0.00 | 87 | 1015.1 |
| 20260510032832 | 47 | 123 | 1.0 | 1.0 | 0.00 | 0.00 | 0.00 | 87 | 1015.0 |
| 20260510032329 | 47 | 121 | 0.0 | 0.0 | 0.00 | 0.00 | 0.00 | 87 | 1014.8 |
| 20260510031825 | 48 | 129 | 0.0 | 0.0 | 0.00 | 0.00 | 0.00 | 87 | 1015.0 |
| 20260510031320 | 47 | 169 | 0.0 | 0.0 | 0.00 | 0.00 | 0.00 | 87 | 1015.1 |
| 20260510030815 | 48 | 87 | 0.0 | 1.0 | 0.00 | 0.00 | 0.00 | 86 | 1014.8 |
| 20260510030311 | 47 | 86 | 0.0 | 0.0 | 0.00 | 0.00 | 0.00 | 88 | 1014.8 |
| 20260510025809 | 47 | 131 | 0.0 | 0.0 | 0.00 | 0.00 | 0.00 | 87 | 1014.8 |
| 20260510025306 | 47 | 117 | 0.0 | 0.0 | 0.00 | 0.00 | 0.00 | 87 | 1014.8 |
| 20260510024803 | 48 | 145 | 0.0 | 0.0 | 0.00 | 0.00 | 0.00 | 86 | 1015.0 |
| 20260510024300 | 48 | 158 | 0.0 | 0.0 | 0.00 | 0.00 | 0.00 | 86 | 1015.0 |
| 20260510023755 | 48 | 81 | 0.0 | 0.0 | 0.00 | 0.00 | 0.00 | 85 | 1014.6 |
| 20260510023247 | 49 | 72 | 0.0 | 0.0 | 0.00 | 0.00 | 0.00 | 84 | 1014.7 |
| 20260510022744 | 49 | 108 | 0.0 | 2.0 | 0.00 | 0.00 | 0.00 | 84 | 1014.7 |
| 20260510022243 | 49 | 223 | 1.0 | 2.0 | 0.00 | 0.00 | 0.00 | 84 | 1014.6 |
| 20260510021742 | 49 | 131 | 0.0 | 0.0 | 0.00 | 0.00 | 0.00 | 83 | 1014.6 |
| 20260510021241 | 48 | 109 | 0.0 | 1.0 | 0.00 | 0.00 | 0.00 | 85 | 1014.6 |
| 20260510020737 | 49 | 81 | 0.0 | 0.0 | 0.00 | 0.00 | 0.00 | 85 | 1014.3 |
| 20260510020236 | 49 | 175 | 0.0 | 0.0 | 0.00 | 0.00 | 0.00 | 83 | 1014.3 |
| 20260510015733 | 49 | 106 | 0.0 | 0.0 | 0.00 | 0.00 | 0.00 | 83 | 1014.1 |
| 20260510015229 | 50 | 261 | 1.0 | 1.0 | 0.00 | 0.00 | 0.00 | 81 | 1014.2 |
| 20260510014724 | 50 | 95 | 0.0 | 0.0 | 0.00 | 0.00 | 0.00 | 82 | 1014.1 |
| 20260510014222 | 51 | 106 | 0.0 | 0.0 | 0.00 | 0.00 | 0.00 | 80 | 1013.9 |
| 20260510013717 | 49 | 116 | 0.0 | 0.0 | 0.00 | 0.00 | 0.00 | 83 | 1014.0 |
| 20260510013214 | 50 | 82 | 0.0 | 0.0 | 0.00 | 0.00 | 0.00 | 81 | 1013.7 |
| 20260510012713 | 51 | 92 | 0.0 | 0.0 | 0.00 | 0.00 | 0.00 | 80 | 1013.8 |
| 20260510012209 | 51 | 178 | 0.0 | 0.0 | 0.00 | 0.00 | 0.00 | 79 | 1013.6 |
| 20260510011704 | 52 | 112 | 0.0 | 0.0 | 0.00 | 0.00 | 0.00 | 78 | 1013.4 |
| 20260510011159 | 52 | 119 | 0.0 | 0.0 | 0.00 | 0.00 | 0.00 | 77 | 1013.5 |
| 20260510010656 | 52 | 58 | 0.0 | 0.0 | 0.00 | 0.00 | 0.00 | 77 | 1013.4 |
| 20260510010148 | 53 | 110 | 0.0 | 0.0 | 0.00 | 0.00 | 0.00 | 76 | 1013.4 |
| 20260510005644 | 53 | 271 | 0.0 | 0.0 | 0.00 | 0.00 | 0.00 | 76 | 1013.4 |
| 20260510005141 | 53 | 122 | 0.0 | 0.0 | 0.00 | 0.00 | 0.00 | 76 | 1013.2 |
| 20260510004639 | 53 | 125 | 0.0 | 0.0 | 0.00 | 0.00 | 0.00 | 75 | 1013.0 |
| 20260510004137 | 55 | 117 | 0.0 | 1.0 | 0.00 | 0.00 | 0.00 | 72 | 1012.8 |
| 20260510003634 | 55 | 204 | 0.0 | 1.0 | 0.00 | 0.00 | 0.00 | 72 | 1012.8 |
| 20260510003130 | 56 | 119 | 0.0 | 1.0 | 0.00 | 0.00 | 0.00 | 70 | 1012.7 |
| 20260510002629 | 56 | 93 | 0.0 | 1.0 | 0.00 | 0.00 | 0.00 | 68 | 1012.6 |
| 20260510002127 | 56 | 117 | 0.0 | 0.0 | 0.00 | 0.00 | 0.00 | 71 | 1012.6 |
| 20260510001623 | 56 | 145 | 0.0 | 0.0 | 0.00 | 0.00 | 0.00 | 68 | 1012.5 |
| 20260510001122 | 56 | 108 | 1.0 | 2.0 | 0.00 | 0.00 | 0.00 | 68 | 1012.3 |
| 20260510000622 | 58 | 141 | 0.0 | 0.0 | 0.00 | 0.00 | 0.00 | 68 | 1012.4 |
| 20260510000120 | 58 | 112 | 0.0 | 0.0 | 0.00 | 0.00 | 0.00 | 65 | 1012.3 |
| 20260509235616 | 59 | 137 | 0.0 | 0.0 | 0.00 | 0.00 | 0.00 | 62 | 1012.3 |
| 20260509235113 | 59 | 116 | 0.0 | 1.0 | 0.00 | 0.00 | 0.00 | 63 | 1012.3 |
| 20260509234609 | 60 | 159 | 0.0 | 0.0 | 0.00 | 0.00 | 0.00 | 59 | 1012.1 |
| 20260509234107 | 60 | 130 | 0.0 | 2.0 | 0.00 | 0.00 | 0.00 | 60 | 1012.1 |
| 20260509233604 | 62 | 209 | 1.0 | 2.0 | 0.00 | 0.00 | 0.00 | 58 | 1012.1 |
| 20260509233101 | 63 | 219 | 0.0 | 2.0 | 0.00 | 0.00 | 0.00 | 55 | 1012.2 |
| 20260509232557 | 64 | 290 | 1.0 | 3.0 | 0.00 | 0.00 | 0.00 | 50 | 1012.1 |
| 20260509232055 | 64 | 207 | 3.0 | 3.0 | 0.00 | 0.00 | 0.00 | 51 | 1012.2 |
| 20260509231551 | 66 | 290 | 3.0 | 4.0 | 0.00 | 0.00 | 0.00 | 50 | 1012.3 |
| 20260509231049 | 67 | 248 | 3.0 | 6.0 | 0.00 | 0.00 | 0.00 | 45 | 1012.4 |
| 20260509230545 | 67 | 203 | 4.0 | 7.0 | 0.00 | 0.00 | 0.00 | 45 | 1012.3 |
| 20260509230043 | 68 | 230 | 2.0 | 4.0 | 0.00 | 0.00 | 0.00 | 46 | 1012.4 |
| 20260509225538 | 68 | 137 | 2.0 | 7.0 | 0.00 | 0.00 | 0.00 | 47 | 1012.3 |
| 20260509225033 | 68 | 134 | 4.0 | 8.0 | 0.00 | 0.00 | 0.00 | 44 | 1012.5 |
| 20260509224529 | 67 | 177 | 6.0 | 8.0 | 0.00 | 0.00 | 0.00 | 45 | 1012.3 |
| 20260509224026 | 67 | 99 | 5.0 | 15.0 | 0.00 | 0.00 | 0.00 | 45 | 1012.1 |
| 20260509223523 | 68 | 187 | 1.0 | 3.0 | 0.00 | 0.00 | 0.00 | 47 | 1012.4 |
| 20260509223021 | 67 | 216 | 2.0 | 6.0 | 0.00 | 0.00 | 0.00 | 49 | 1012.3 |
| 20260509222517 | 67 | 206 | 5.0 | 8.0 | 0.00 | 0.00 | 0.00 | 49 | 1012.2 |
| 20260509222012 | 67 | 185 | 5.0 | 7.0 | 0.00 | 0.00 | 0.00 | 46 | 1012.2 |
| 20260509221509 | 68 | 214 | 3.0 | 6.0 | 0.00 | 0.00 | 0.00 | 47 | 1012.4 |
| 20260509221004 | 67 | 269 | 4.0 | 4.0 | 0.00 | 0.00 | 0.00 | 48 | 1012.3 |
| 20260509220501 | 67 | 217 | 7.0 | 10.0 | 0.00 | 0.00 | 0.00 | 47 | 1012.2 |
| 20260509215957 | 68 | 185 | 6.0 | 7.0 | 0.00 | 0.00 | 0.00 | 45 | 1012.0 |
| 20260509215452 | 68 | 189 | 3.0 | 3.0 | 0.00 | 0.00 | 0.00 | 44 | 1012.2 |
| 20260509214950 | 67 | 195 | 2.0 | 3.0 | 0.00 | 0.00 | 0.00 | 43 | 1011.9 |
| 20260509214447 | 68 | 283 | 1.0 | 7.0 | 0.00 | 0.00 | 0.00 | 46 | 1012.0 |
| 20260509213944 | 67 | 195 | 5.0 | 9.0 | 0.00 | 0.00 | 0.00 | 47 | 1012.1 |
| 20260509213440 | 69 | 264 | 4.0 | 6.0 | 0.00 | 0.00 | 0.00 | 44 | 1012.0 |
| 20260509212937 | 69 | 168 | 3.0 | 6.0 | 0.00 | 0.00 | 0.00 | 41 | 1011.8 |
| 20260509212435 | 68 | 230 | 4.0 | 4.0 | 0.00 | 0.00 | 0.00 | 43 | 1011.6 |
| 20260509211930 | 69 | 278 | 2.0 | 6.0 | 0.00 | 0.00 | 0.00 | 41 | 1011.6 |